Location: Unspecified
(0.0000°N, 0.0000°E)
Time: 14:04:53
(UTC+00:00)

A-11 Canister half - Pass Details

Date: 28 May 2026
Orbit: 1524 x 1684 km, 47.3° (Epoch: 7 June)

Event Time Altitude Azimuth Distance (km) Brightness Sun altitude
Rises 08:35:51 0° 196° (SSW) 4,755 11.2 36.4°
Reaches altitude 10° 08:39:50 10° 183° (S) 3,745 10.9 37.3°
Maximum altitude 08:46:58 24° 133° (SE) 2,774 10.8 38.9°
Drops below altitude 10° 08:53:57 10° 83° (E) 3,685 12.0 40.4°
Sets 08:57:46 0° 69° (ENE) 4,662 12.4 41.2°
